This demonstration page uses our WeatherBlox Daily Observations layout. Learn more.

Left ArrowRight Arrow

40.92501, -98.34201

Hourly Observations for November 28, 2022

Temp ( °F °C ) Dew Point ( °F °C ) Humidity (%) Winds ( mph kmh ) Pressure ( in mb ) Visibility ( mi km ) Precip ( " mm )
12:53 am 00:53 Clear 29 -1.7 18 -7.8 63 63 S 12 19 29.82 1010 10 16 0.00 0.00
1:53 am 01:53 Clear 30 -1.1 19 -7.2 63 63 S 14 22 29.81 1009 10 16 0.00 0.00
2:53 am 02:53 Clear 30 -1.1 19 -7.2 63 63 S 12 19 29.79 1009 10 16 0.00 0.00
3:53 am 03:53 Clear 30 -1.1 20 -6.7 66 66 S 9 15 29.78 1008 10 16 0.00 0.00
4:53 am 04:53 Clear 31 -0.6 20 -6.7 63 63 SSW 10 17 29.76 1008 10 16 0.00 0.00
5:53 am 05:53 Clear 30 -1.1 20 -6.7 66 66 S 13 20 29.75 1008 10 16 0.00 0.00
6:53 am 06:53 Clear 30 -1.1 21 -6.1 69 69 SSW 12 19 29.75 1008 10 16 0.00 0.00
7:53 am 07:53 Sunny 32 0 23 -5 69 69 SW 16 26 29.74 1007 10 16 0.00 0.00
8:53 am 08:53 Sunny 35 1.7 24 -4.4 64 64 SW 18 30 29.75 1008 10 16 0.00 0.00
9:53 am 09:53 Sunny 43 6.1 26 -3.3 51 51 SW 13 20 29.74 1007 10 16 0.00 0.00
10:53 am 10:53 Sunny 46 7.8 26 -3.3 45 45 SW 16 26 29.74 1007 10 16 0.00 0.00
11:53 am 11:53 Sunny 52 11.1 28 -2.2 39 39 SW 12 19 29.72 1006 10 16 0.00 0.00
12:53 pm 12:53 Sunny 53 11.7 28 -2.2 38 38 SSW 9 15 29.67 1005 10 16 0.00 0.00
1:53 pm 13:53 Sunny 55 12.8 29 -1.7 36 36 S 8 13 29.65 1004 10 16 0.00 0.00
2:53 pm 14:53 Sunny 56 13.3 29 -1.7 35 35 SSE 10 17 29.61 1003 10 16 0.00 0.00
3:53 pm 15:53 Sunny 54 12.2 29 -1.7 38 38 SSE 14 22 29.62 1003 10 16 0.00 0.00
4:53 pm 16:53 Sunny 47 8.3 29 -1.7 49 49 SSE 9 15 29.63 1004 10 16 0.00 0.00
5:53 pm 17:53 Clear 36 2.2 25 -3.9 64 64 NE 6 9 29.67 1005 10 16 0.00 0.00
6:53 pm 18:53 Clear 41 5 28 -2.2 60 60 E 3 6 29.67 1005 10 16 0.00 0.00
7:53 pm 19:53 Mostly Clear 36 2.2 26 -3.3 67 67 NE 8 13 29.68 1005 10 16 0.00 0.00
8:53 pm 20:53 Cloudy 40 4.4 27 -2.8 59 59 NNE 13 20 29.67 1005 10 16 0.00 0.00
9:39 pm 21:39 Cloudy 42 5.6 26 -3.3 53 53 NE 13 20 29.65 1004 10 16 0.00 0.00
9:53 pm 21:53 Cloudy 42 5.6 26 -3.3 53 53 NE 15 24 29.65 1004 10 16 0.00 0.00
10:37 pm 22:37 Cloudy 42 5.6 26 -3.3 53 53 NE 18 30 29.64 1004 10 16 0.00 0.00
10:53 pm 22:53 Cloudy 41 5 26 -3.3 55 55 NE 18 30 29.63 1003 10 16 0.00 0.00
11:53 pm 23:53 Cloudy 39 3.9 24 -4.4 55 55 NE 20 31 29.62 1003 10 16 0.00 0.00

Powered by AerisWeather